Regional Weather Roundup
Issued by NWS Northern Indiana

Home | Current Version | Previous Version | Text Only | Print | Product List | Glossary On
Versions: 1 2 3 4 5 6 7 8 9 10 11 12 13 14 15 16 17 18 19 20 21 22 23 24 25 26 27 28 29 30 31 32 33 34 35 36 37 38 39 40 41 42 43 44 45 46 47 48 49 50
000
ASUS43 KIWX 021310
RWRIWX

KIWX WEATHER ROUNDUP
NATIONAL WEATHER SERVICE NORTHERN INDIANA
900 AM EDT THU JUL 02 2015

NOTE: "FAIR" INDICATES FEW OR NO CLOUDS BELOW 12,000 FEET WITH NO
SIGNIFICANT WEATHER AND/OR OBSTRUCTIONS TO VISIBILITY.

* THESE STATIONS ARE NOT UNDER NWS QUALITY CONTROL. THEY ALSO MAY NOT
  REPORT WEATHER SUCH AS PRECIPITATION OR FOG.

INZ001>027-021400-
NORTHERN INDIANA

CITY           SKY/WX    TMP DP  RH WIND       PRES   REMARKS
GARY*          PTSUNNY   63  57  82 N12       29.99R
VALPARAISO     SUNNY     61  55  81 NE7       29.98S
SOUTH BEND     SUNNY     61  55  81 E5        30.00R
ELKHART*       SUNNY     59  55  88 NE8       29.99R
GOSHEN         SUNNY     61  55  81 NE9       29.98R
ANGOLA*          N/A     61  48  63 E8        29.98S
FORT WAYNE     CLOUDY    64  59  83 NE13      29.95S
PERU/GRISSOM   PTSUNNY   60  56  86 N6        29.93S

$$
INZ028>050-021400-
CENTRAL INDIANA

CITY           SKY/WX    TMP DP  RH WIND       PRES   REMARKS
LAFAYETTE      CLOUDY    58  54  86 N6        29.94R
KOKOMO*        PTSUNNY   61  55  82 E5        29.94R
MUNCIE*        PTSUNNY   64  58  80 NE8       29.93R
INDIANAPOLIS   CLOUDY    64  55  72 NE9       29.90R

$$
MIZ043>046-050>051-056>058-064>065-071>073-077>080-021400-
SOUTHWEST LOWER MICHIGAN

CITY           SKY/WX    TMP DP  RH WIND       PRES   REMARKS
BATTLE CREEK   CLOUDY    59  56  89 E3        30.01R
BENTON HARBOR  SUNNY     60  55  83 E7        30.00R
COLDWATER*     CLOUDY    58  57  96 E7        29.99S FOG
HILLSDALE*     MOSUNNY   61  61  99 E6        29.99S FOG
HOLLAND        PTSUNNY   57  53  86 E9        30.02R
GRAND RAPIDS   MOSUNNY   58  55  90 NE7       30.02R
KALAMAZOO      FOG       57  55  93 NE6       30.01R VSB 1
STURGIS*       SUNNY     59  57  94 NE6       29.99R
THREE RIVERS*  FAIR      60  56  87 E3        30.00R

$$
OHZ001>008-015>018-024>025-021400-
NORTHWEST OHIO

CITY           SKY/WX    TMP DP  RH WIND       PRES   REMARKS
DEFIANCE       CLOUDY    64  59  83 E8        29.97S
FINDLAY        PTSUNNY   65  60  84 NE14      29.95S
TOLEDO EXPRESS PTSUNNY   64  59  83 NE10      29.98R
TOLEDO METCALF PTSUNNY   64  57  78 NE8       29.99R
LIMA           PTSUNNY   65  62  90 NE9       29.94S

$$
AND FOR LAKE MICHIGAN COASTAL AND OPEN LAKE BUOY OBSERVATIONS

STATION/POSITION TEMP    WIND        PRES    VSBY  WAVE
                 AIR SEA DIR/SP/G                  HT/PER
                 (F)     (DEG/KT/KT) (MB)    (MI)  (FT/S)
CALUMET HARBOR    58     360/  6/ 11   N/A
MICHIGAN CITY     56      40/  8/  9   N/A
SAINT JOSEPH      60     250/  1/  4   N/A
4 MI NW BRIDGMAN  58 62                N/A           2/ 4
MICHIGAN CITY     59 64   80/  8/ 12   N/A           3/ 5

$$
&&


USA.gov is the U.S. government's official web portal to all federal, state and local government web resources and services.